VTUJ

Details ICAO VTUJ
Name Surin
Region Thailand
Timezone Asia/Bangkok (UTC+7.0)
Plans Departing 1
Arriving 1
Stats Elevation 478 ft / 146 m (AMSL)
Location 14.868263° 103.498255°
Runways 1
Magnetic Variation 0.727° W
Sunrise 2018-05-22 22:37:40 UTC / 2018-05-23 05:37:40 Local
Sunset 2018-05-23 11:30:40 UTC / 2018-05-23 18:30:40 Local
Advertisement - Login to hide

Runways

ID Width Length Bearing (true) Bearing (mag) Surface Threshold Offset Overrun Length
01 115 ft / 35 m 5,083 ft / 1,549 m 7.47° 8.20° Asphalt 0 ft / 0 m 590 ft / 180 m
19 115 ft / 35 m 5,083 ft / 1,549 m 187.47° 188.20° Asphalt 0 ft / 0 m 0 ft / 0 m

Map

Weather


0- 5 10 15 20 25 30 35+ Temperature / ° C

Clouds and Precipitation
Forecast for 2018-05-23 12:00 UTC. Updated 20 minutes ago

Ground ~20,000 ft ~40,000 ft Winds

METAR

Not found

TAF

TAF VTUJ 230500Z 2306/2406 17005KT 9000 FEW025 SCT100 BECMG 2320/2322 4000 BR BECMG 2400/2402 8000 NSW

Frequencies

Tower 122.70 MHz TWR
Approach 123.60 MHz BURI RAM APP
Warning: Do not use this data for real-world aviation or navigation. No guarantee of current accuracy is given.